Wind_Speed
8 7 6 3 4 3 3 4 5 7 8 8 9 8 8 8 6 3 2 1 3 6 10 10 11 11 12 12 10 11 12 11 12 10 9 9 8 8 8 8 9 10 10
9 9 9 7 4 3 4 5 6 7 8 9 9 8 7 5 3 2 0 2 2 3 9 11 11 11 12 12 12 13 13 12 12 11 11 9 11 12 12 12 10 11 11
12 11 10 7 5 4 4 5 6 7 8 9 8 7 6 4 2 1 1 2 3 6 6 7 11 12 13 13 13 13 14 14 14 15 15 14 14 14 13 14 14 14 14
14 14 11 8 6 5 5 6 7 7 9 10 10 8 7 4 2 2 3 4 4 5 7 10 11 14 15 16 15 14 15 16 15 16 17 16 17 15 16 17 18 18 18
17 14 10 9 7 6 6 6 7 8 11 13 11 10 7 3 5 3 2 5 5 6 6 10 15 16 18 16 14 14 15 16 17 18 18 19 17 17 18 18 18 18 18
18 14 12 10 8 7 8 6 7 8 10 14 11 8 2 2 5 2 4 6 4 6 6 10 15 14 15 14 15 15 16 18 20 20 20 20 19 20 21 20 20 21 20
20 16 13 11 9 9 8 7 6 8 10 14 10 5 2 0 4 3 7 3 5 6 11 11 14 15 15 17 16 16 20 20 18 22 22 22 21 22 23 23 23 23 24
19 16 14 11 10 9 8 8 9 7 7 11 8 5 3 1 1 8 4 9 3 11 12 17 16 16 17 16 18 20 18 19 21 23 23 22 22 24 24 25 26 28 29
17 16 14 12 10 8 7 7 8 8 7 6 8 5 3 2 11 3 8 4 13 13 19 17 16 19 16 18 16 17 17 20 20 22 22 23 24 25 27 29 31 33 35
16 15 14 11 10 8 7 6 6 6 5 6 3 4 2 3 3 5 5 11 10 19 19 18 19 20 18 16 18 18 19 22 26 27 28 27 27 29 31 33 35 37 39
15 15 13 11 9 8 7 6 5 3 3 3 4 5 4 6 5 5 9 10 19 18 19 19 20 16 15 17 17 16 24 27 26 26 28 29 31 34 36 38 41 41 41
14 13 12 10 9 8 6 5 3 2 1 1 2 3 5 5 7 8 9 14 18 20 22 20 14 16 17 18 17 24 24 26 28 29 29 31 33 35 37 38 40 40 41
15 14 12 9 8 7 5 4 3 0 1 3 3 5 6 8 10 13 15 17 13 23 17 14 14 19 17 17 25 25 28 28 28 28 29 31 33 35 36 37 40 42 44
15 14 12 9 8 6 5 3 2 1 2 3 5 6 8 10 11 13 15 17 14 12 21 19 20 16 16 24 26 26 27 27 28 29 31 33 35 35 37 38 39 40 41
16 14 12 9 7 5 4 2 1 2 2 4 6 8 9 11 12 13 15 16 17 13 13 15 9 22 24 26 27 28 28 28 29 32 33 34 35 37 39 40 42 43 44
16 14 11 9 7 4 3 2 2 2 3 5 7 9 11 12 14 15 16 17 19 21 13 22 26 27 27 28 28 27 29 30 31 32 34 35 38 39 39 41 40 41 41
15 13 11 8 5 3 2 2 2 3 5 7 8 10 12 13 15 15 16 18 19 21 17 28 29 29 31 29 30 27 28 29 33 37 37 37 36 37 38 39 39 40 40
13 12 9 7 4 3 2 2 4 5 6 8 10 11 13 13 15 15 15 17 19 22 26 27 31 31 31 30 29 29 31 34 33 33 34 35 36 36 36 37 38 40 41
12 10 8 5 3 2 2 4 5 7 8 10 11 13 14 14 15 15 17 20 22 24 27 28 31 32 31 26 31 33 31 30 28 30 32 33 36 37 36 36 38 41 42
11 8 6 4 1 2 3 4 7 8 10 12 13 14 15 14 15 18 20 23 25 26 28 29 29 29 25 31 32 29 28 29 29 31 34 34 34 34 33 37 41 41 39
9 7 5 2 1 3 4 6 8 11 12 14 15 15 15 15 18 19 22 24 26 27 26 27 21 25 28 27 26 28 27 30 33 30 32 30 31 36 37 36 36 36 35
7 5 2 0 3 4 7 6 9 12 14 15 16 17 17 18 18 21 23 23 26 28 29 24 25 25 30 28 29 28 28 26 14 28 26 37 32 36 34 34 35 37 38
5 3 0 2 4 5 7 8 11 13 14 15 16 17 19 18 20 21 22 26 29 21 28 31 29 29 28 29 31 29 29 28 27 35 33 34 32 34 34 36 37 37 38
3 1 2 4 5 6 8 10 12 13 13 14 16 18 19 20 20 22 27 25 24 28 25 25 27 30 30 29 32 32 30 32 31 31 28 15 32 31 33 37 38 34 32
1 1 3 5 7 7 8 11 13 14 14 15 16 18 18 19 20 26 25 25 28 27 24 24 28 27 32 31 26 26 24 22 16 27 29 26 26 32 35 37 25 20 27
1 3 5 5 7 8 10 12 13 13 15 17 19 19 17 18 24 24 27 28 27 26 27 29 28 26 23 23 22 20 22 20 20 14 17 20 27 23 8 21 21 37 31
Wind_Direction
158 154 134 141 87 56 25 8 356 351 339 335 327 326 327 324 318 323 313 360 78 55 44 35 32 27 18 15 12 6 358 352 347 339 330 324 317 311 304 296 290 292 295
163 167 164 156 101 66 29 18 2 343 335 332 326 326 325 321 316 349 275 14 15 34 41 37 31 21 15 9 3 357 354 346 347 347 337 326 317 315 313 305 299 293 291
176 166 152 130 106 77 43 18 358 344 339 338 332 322 319 306 287 60 66 58 14 5 7 14 15 12 5 358 349 345 344 338 332 329 322 309 307 309 309 301 297 295 293
174 164 152 127 107 76 48 27 10 357 353 346 338 323 310 280 207 107 72 50 24 14 352 350 350 346 342 340 336 330 331 329 323 319 316 305 297 288 295 293 289 288 289
167 154 134 122 101 81 61 45 17 16 359 348 340 327 311 221 188 152 37 2 352 360 348 340 337 342 332 334 333 324 321 322 316 313 308 302 285 287 291 288 283 281 282
157 143 130 122 108 93 71 49 31 20 9 348 335 323 325 197 203 228 319 325 340 350 346 341 337 327 329 330 326 320 314 312 308 306 301 297 280 284 287 283 278 278 279
152 142 133 123 111 91 77 53 32 22 11 360 343 342 322 320 232 194 341 18 328 340 332 331 331 328 324 322 321 318 315 311 308 304 299 294 281 282 283 280 276 274 275
149 142 138 127 111 99 76 56 41 25 18 16 360 318 337 216 63 292 277 332 348 333 334 328 326 326 321 318 317 320 320 318 313 307 301 293 285 284 283 280 277 276 276
146 143 137 126 116 100 85 63 47 37 16 16 24 357 306 327 333 284 308 294 327 327 326 323 319 319 316 316 318 316 317 320 318 312 304 297 291 287 284 282 281 278 276
144 141 136 129 117 103 92 74 55 44 20 7 349 7 334 302 313 306 300 302 301 312 310 312 313 311 315 315 315 314 319 319 313 307 300 293 289 288 287 285 283 282 280
147 142 138 129 118 107 99 89 74 54 36 0 339 329 311 301 273 282 301 310 306 310 305 311 305 307 310 313 311 312 315 310 308 303 298 293 290 288 287 286 285 285 285
146 142 138 131 123 117 112 103 90 68 26 326 298 299 301 303 305 293 296 302 305 310 308 305 302 304 309 311 307 313 312 309 307 303 298 295 292 290 289 288 286 287 284
154 149 141 137 134 129 120 116 101 110 280 285 284 293 285 282 288 288 293 300 303 306 304 295 297 304 304 306 308 309 308 307 306 302 299 298 296 294 294 293 290 287 284
154 150 144 146 141 136 129 123 133 212 261 275 285 290 291 290 289 289 293 304 307 303 301 304 299 294 301 307 305 304 301 301 299 297 296 296 296 295 294 292 291 290 287
149 148 148 150 149 142 135 134 191 231 253 285 293 293 291 291 290 290 290 290 295 302 305 303 285 305 308 307 304 302 300 299 297 295 293 293 293 293 293 290 289 287 287
149 148 152 154 152 147 150 181 222 250 289 298 299 296 297 297 295 292 288 286 284 288 291 298 301 306 306 304 302 299 299 299 296 295 296 295 293 293 292 290 288 287 286
148 150 154 154 154 160 181 217 263 280 302 301 298 300 300 299 295 293 292 290 289 289 289 296 301 305 305 303 303 303 304 300 294 296 295 295 293 292 291 291 289 286 284
145 149 150 149 154 170 210 262 287 298 298 297 302 303 301 300 296 297 297 296 294 295 294 297 302 303 301 302 306 305 301 298 297 298 297 296 294 293 291 290 290 288 286
142 143 145 148 151 201 260 291 295 294 294 296 299 302 302 300 300 303 301 299 298 297 295 292 298 296 300 307 305 306 304 303 301 300 298 296 295 293 292 290 290 288 287
140 142 141 140 163 284 293 300 298 300 296 295 295 296 298 295 299 304 302 300 301 301 298 294 290 298 307 310 304 306 309 307 305 305 298 297 294 293 291 291 290 287 286
138 140 138 136 305 316 306 310 311 301 297 295 293 295 297 295 299 299 302 302 303 301 294 295 302 309 305 306 308 310 305 307 304 305 299 296 300 296 291 290 289 288 286
138 137 133 282 324 314 312 325 313 306 298 295 297 301 302 302 301 302 304 301 297 294 298 306 306 299 303 306 307 307 305 309 304 310 306 298 299 295 292 291 291 291 290
141 145 240 328 314 321 329 324 316 306 299 300 301 302 303 304 306 308 303 301 298 296 301 297 298 299 301 304 303 302 304 299 299 299 303 295 300 294 296 293 295 295 291
150 203 312 321 325 319 324 323 315 309 304 302 301 303 306 308 309 306 306 306 311 305 303 302 297 296 297 299 302 299 301 297 293 296 302 294 303 296 302 298 297 294 290
171 304 322 326 321 317 316 323 325 317 306 304 307 308 306 299 304 312 312 314 309 308 307 302 301 296 298 299 298 299 294 299 297 301 308 293 302 308 305 299 298 298 298
326 328 321 315 311 315 325 331 328 315 310 312 310 306 309 304 312 313 316 314 311 309 309 307 308 305 303 302 301 296 298 296 297 303 305 312 307 315 311 300 301 305 303
Height
803 804 805 807 808 809 810 809 808 807 806 804 803 801 799 798 798 796 797 795 793 792 791 790 789 788 786 785 784 782 781 779 779 778 777 776 775 774 773 772 772 772 772
801 802 804 806 807 809 810 809 807 807 805 803 801 800 798 797 798 796 797 795 793 792 791 789 789 787 786 785 784 782 780 779 777 777 776 775 774 773 772 771 771 770 770
799 801 804 806 807 808 809 808 808 807 805 802 799 799 797 796 797 796 796 795 794 792 790 788 788 787 785 784 783 781 779 778 777 775 774 773 772 771 771 770 769 768 768
798 800 803 805 807 807 808 808 808 806 804 802 799 797 796 795 796 796 796 794 794 793 792 788 786 785 784 782 781 780 778 776 775 774 772 771 769 768 768 767 766 765 765
796 800 803 805 807 807 808 808 808 805 803 801 798 797 795 794 796 795 796 794 793 791 791 789 785 783 781 780 778 777 775 774 772 771 769 767 766 764 763 763 762 761 760
795 799 802 805 807 808 807 808 808 805 804 802 798 797 796 794 795 794 794 793 792 791 790 788 786 783 780 778 776 774 772 771 769 767 765 763 761 760 759 758 757 756 756
794 797 802 804 806 806 807 807 807 806 805 803 800 797 795 794 794 793 793 792 791 790 789 787 784 781 779 776 773 771 769 767 765 763 761 759 757 755 754 753 751 750 749
794 797 800 803 804 806 806 807 806 806 806 805 804 800 794 793 793 792 792 790 790 788 787 785 782 780 777 774 771 768 766 764 761 759 757 755 752 750 748 747 745 744 743
794 796 799 801 803 805 806 806 806 806 807 807 807 806 797 794 797 790 790 789 788 787 785 782 780 777 774 771 768 766 764 761 758 756 753 751 748 745 743 741 740 738 736
794 796 798 801 802 803 805 806 806 807 808 807 807 807 806 805 798 790 788 788 788 786 784 781 778 774 772 769 766 763 761 758 755 752 748 745 742 739 737 735 732 730 728
794 795 798 800 802 802 804 805 806 807 807 807 807 806 804 802 801 798 788 785 785 783 781 778 775 772 769 766 763 761 758 756 752 749 745 741 737 734 730 727 725 723 721
794 796 798 800 802 802 803 804 805 806 806 806 806 805 804 802 798 797 791 785 782 778 776 774 771 768 766 763 760 757 754 751 747 743 739 736 732 728 724 721 719 717 714
793 795 796 800 802 802 802 802 803 805 805 805 804 803 802 800 798 796 792 785 779 776 771 769 767 765 763 760 757 753 749 746 742 738 734 730 726 722 719 715 713 710 707
790 793 796 800 801 801 801 801 802 803 803 803 802 801 799 798 796 794 791 786 775 770 768 763 762 761 759 756 753 749 745 741 737 733 728 724 720 716 713 709 706 702 699
788 792 796 799 801 800 800 800 801 801 800 800 800 798 797 795 793 790 788 785 781 767 760 759 758 758 755 751 748 744 739 735 731 727 723 718 714 710 706 702 698 694 691
787 791 795 798 799 798 798 799 799 798 798 797 797 796 793 791 789 786 784 781 778 772 759 758 755 753 750 746 742 738 733 729 724 719 715 711 707 702 698 693 689 685 681
787 791 795 797 797 798 797 797 796 795 795 795 794 792 789 788 785 782 780 777 773 769 759 749 750 748 744 740 735 732 728 724 717 712 707 702 698 693 689 684 680 675 672
788 791 794 795 795 796 796 795 794 793 792 791 790 788 786 784 782 779 776 773 769 765 759 747 746 742 739 734 730 726 722 716 709 704 699 694 689 684 679 674 670 665 661
788 791 793 794 794 794 794 793 792 790 789 788 787 785 783 781 778 775 772 768 765 760 756 748 737 736 730 728 723 719 713 708 703 698 692 686 680 674 670 665 660 654 649
789 791 791 792 792 792 792 791 789 788 787 785 784 783 780 777 775 771 768 764 760 756 751 745 736 730 727 722 718 710 704 701 696 691 684 678 670 665 660 654 648 643 639
789 790 791 791 791 790 790 788 787 785 784 782 781 778 776 774 771 769 765 761 757 753 747 740 733 728 722 716 712 707 700 694 687 685 674 668 662 656 649 643 637 632 628
789 790 790 790 789 789 786 785 784 782 780 779 776 774 772 769 766 764 761 757 754 748 741 737 731 724 717 713 708 703 698 690 677 677 670 658 657 645 639 633 627 622 617
789 790 789 788 788 786 783 782 781 779 777 775 773 770 768 765 762 759 756 752 747 743 739 733 726 721 715 710 706 698 694 687 679 670 666 650 648 637 631 623 617 612 606
789 789 788 787 785 783 781 780 779 776 774 772 770 767 764 760 758 755 750 745 741 736 731 728 723 717 712 707 703 696 689 681 673 666 661 647 639 630 621 614 606 601 596
788 788 786 784 783 782 780 778 775 773 770 768 765 762 760 757 754 750 744 739 733 729 725 722 717 711 705 700 696 691 684 678 666 659 654 645 634 626 616 602 596 592 588
787 785 784 782 781 780 777 774 773 770 767 764 761 757 755 752 748 745 740 734 728 724 720 714 709 704 699 694 690 687 681 674 667 655 647 643 634 628 609 597 591 585 577